This is the latest recevied weather packets stored in our database for station/object KF8LO-1. If no packets are shown the sender has not sent any weather packets the latest 10 day(s).
| Time | Temp. | Humidity | Pressure | Rain* | Wind** | Luminosity | Snow |
|---|---|---|---|---|---|---|---|
| 1777655293 | 12.22° C | 42% | 0 hPa | 0 mm | - | - | - |
| 1777654993 | 12.22° C | 42% | 0 hPa | 0 mm | - | - | - |
| 1777654693 | 12.22° C | 44% | 0 hPa | 0 mm | - | - | - |
| 1777654393 | 11.67° C | 41% | 0 hPa | 0 mm | - | - | - |
| 1777654093 | 11.67° C | 43% | 0 hPa | 0 mm | - | - | - |
| 1777653793 | 11.67° C | 45% | 0 hPa | 0 mm | - | - | - |
| 1777653493 | 11.67° C | 48% | 0 hPa | 0 mm | - | - | - |
| 1777653193 | 11.67° C | 45% | 0 hPa | 0 mm | - | - | - |
| 1777652893 | 11.67° C | 50% | 0 hPa | 0 mm | - | - | - |
| 1777652593 | 11.67° C | 47% | 0 hPa | 0 mm | - | - | - |
| 1777652293 | 11.67° C | 53% | 0 hPa | 0 mm | - | - | - |
| 1777651993 | 11.67° C | 50% | 0 hPa | 0 mm | - | - | - |
| 1777651693 | 11.11° C | 51% | 0 hPa | 0 mm | - | - | - |
| 1777651393 | 11.11° C | 53% | 0 hPa | 0 mm | - | - | - |
| 1777651093 | 10.56° C | 52% | 0 hPa | 0 mm | - | - | - |
| 1777650793 | 11.11° C | 54% | 0 hPa | 0 mm | - | - | - |
| 1777650493 | 10.56° C | 49% | 0 hPa | 0 mm | - | - | - |
| 1777650193 | 10.56° C | 54% | 0 hPa | 0 mm | - | - | - |
| 1777649893 | 10.56° C | 54% | 0 hPa | 0 mm | - | - | - |
| 1777649593 | 10.56° C | 52% | 0 hPa | 0 mm | - | - | - |
| 1777649293 | 10.56° C | 57% | 0 hPa | 0 mm | - | - | - |
| 1777648993 | 10° C | 56% | 0 hPa | 0 mm | - | - | - |
| 1777648693 | 10.56° C | 53% | 0 hPa | 0 mm | - | - | - |
| 1777648393 | 10.56° C | 56% | 0 hPa | 0 mm | - | - | - |
| 1777648093 | 10.56° C | 58% | 0 hPa | 0 mm | - | - | - |
* Rain latest hour (hover to see other rain measurements)
** Current wind speed in m/s (hover to see current wind gust speed)